Location: ????????
(55.6189°N, 38.3031°E)
Time: 01:34:05
(UTC+00:00)

Cosmos 2333 Rocket - Pass Details

Date: 15 November 2019
Orbit: 837 x 864 km, 70.8° (Epoch: 05 December)

Event Time Altitude Azimuth Distance (km) Brightness Sun altitude
Exits shadow 02:31:05 13° 335° (NNW) 2,303 4.2 -20.7°
Maximum altitude 02:35:40 34° 36° (NE) 1,393 3.6 -20.1°
Drops below altitude 10° 02:40:54 10° 101° (E) 2,510 5.9 -19.3°
Sets 02:43:36 0° 110° (ESE) 3,444 6.8 -19.0°
